NDF95M LGTS-LGRP

Flight info

Callsign NDF95M
Flight time 1h 0m
Altitude 31000
Route TSL1F TSL L617 LEKPO UL617 SKP UN137 NEVRA DCT AKINA UL995 CODIC CODIC1K
Aircraft A321/M-SDE3FGHIRWY/LB1

Departure

Time 2026-05-04 11:41
Airport Thessaloniki Macedonia International Airport (LGTS)

Arrival

Time 2026-05-04 12:41
Airport Rhodes International Airport "Diagoras" (LGRP)
Time Latitude Longitude Altitude Speed Heading
2026-05-04 10:49 40.52127 22.98267 29 ft 0 kts 14°
2026-05-04 11:31 40.52079 22.98230 28 ft 4 kts 95°
2026-05-04 11:33 40.52083 22.98202 28 ft 0 kts 104°
2026-05-04 11:36 40.52073 22.98257 28 ft 10 kts 103°
2026-05-04 11:37 40.52055 22.98347 28 ft 11 kts 104°
2026-05-04 11:37 40.52032 22.98466 28 ft 14 kts 104°
2026-05-04 11:37 40.52010 22.98585 28 ft 13 kts 104°
2026-05-04 11:37 40.51975 22.98677 28 ft 11 kts 158°
2026-05-04 11:38 40.51908 22.98665 28 ft 9 kts 193°
2026-05-04 11:38 40.51848 22.98682 28 ft 10 kts 141°
2026-05-04 11:38 40.51791 22.98704 28 ft 8 kts 190°
2026-05-04 11:38 40.51775 22.98699 28 ft 0 kts 193°
2026-05-04 11:39 40.51773 22.98699 28 ft 3 kts 193°
2026-05-04 11:40 40.51857 22.97716 29 ft 105 kts 283°
2026-05-04 11:41 40.52075 22.96567 30 ft 152 kts 284°
2026-05-04 11:41 40.52360 22.95092 265 ft 168 kts 283°
2026-05-04 11:41 40.52641 22.93658 901 ft 161 kts 283°
2026-05-04 11:41 40.52930 22.92225 1372 ft 163 kts 284°
2026-05-04 11:42 40.53228 22.90756 1723 ft 174 kts 284°
2026-05-04 11:42 40.53557 22.89131 1874 ft 194 kts 284°
2026-05-04 11:42 40.53917 22.87337 2005 ft 213 kts 284°
2026-05-04 11:42 40.54313 22.85349 2129 ft 238 kts 284°
2026-05-04 11:43 40.54752 22.83147 2451 ft 259 kts 284°
2026-05-04 11:43 40.55214 22.80824 3107 ft 266 kts 284°
2026-05-04 11:43 40.55686 22.78457 3870 ft 269 kts 284°
2026-05-04 11:43 40.56140 22.76057 4625 ft 272 kts 279°
2026-05-04 11:44 40.55976 22.73597 5316 ft 275 kts 246°
2026-05-04 11:44 40.54795 22.71653 6006 ft 277 kts 212°
2026-05-04 11:44 40.52981 22.70884 6693 ft 278 kts 179°
2026-05-04 11:44 40.51134 22.71552 7372 ft 280 kts 146°
2026-05-04 11:45 40.49854 22.73453 8024 ft 283 kts 114°
2026-05-04 11:45 40.49287 22.75928 8699 ft 285 kts 100°
2026-05-04 11:45 40.49006 22.78525 9367 ft 289 kts 97°
2026-05-04 11:45 40.48768 22.81162 9996 ft 293 kts 97°
2026-05-04 11:46 40.48468 22.83857 10378 ft 308 kts 100°
2026-05-04 11:46 40.48059 22.86716 10513 ft 329 kts 102°
2026-05-04 11:46 40.47543 22.89749 10643 ft 350 kts 103°
2026-05-04 11:46 40.46911 22.92918 10835 ft 366 kts 110°
2026-05-04 11:47 40.45782 22.95941 11330 ft 372 kts 123°
2026-05-04 11:47 40.44139 22.98573 11912 ft 375 kts 136°
2026-05-04 11:47 40.42064 23.00673 12476 ft 379 kts 150°
2026-05-04 11:47 40.39667 23.02120 13047 ft 382 kts 160°
2026-05-04 11:48 40.37206 23.03343 13617 ft 385 kts 160°
2026-05-04 11:48 40.34692 23.04586 14180 ft 388 kts 160°
2026-05-04 11:48 40.32159 23.05840 14727 ft 391 kts 160°
2026-05-04 11:48 40.29607 23.07110 15251 ft 394 kts 159°
2026-05-04 11:49 40.27181 23.08806 15743 ft 399 kts 143°
2026-05-04 11:49 40.25082 23.11198 16224 ft 402 kts 138°
2026-05-04 11:49 40.23014 23.13675 16714 ft 405 kts 138°
2026-05-04 11:49 40.20936 23.16183 17192 ft 408 kts 138°
2026-05-04 11:50 40.18847 23.18708 17655 ft 410 kts 138°
2026-05-04 11:50 40.16745 23.21250 18118 ft 413 kts 138°
2026-05-04 11:50 40.14626 23.23808 18533 ft 417 kts 138°
2026-05-04 11:50 40.12485 23.26384 18953 ft 420 kts 138°
2026-05-04 11:51 40.10331 23.28973 19375 ft 423 kts 138°
2026-05-04 11:51 40.08159 23.31579 19792 ft 425 kts 139°
2026-05-04 11:51 40.05971 23.34197 20202 ft 428 kts 139°
2026-05-04 11:51 40.03770 23.36830 20610 ft 431 kts 139°
2026-05-04 11:52 40.01553 23.39481 21010 ft 433 kts 139°
2026-05-04 11:52 39.99324 23.42144 21398 ft 436 kts 139°
2026-05-04 11:52 39.97077 23.44820 21789 ft 439 kts 139°
2026-05-04 11:52 39.94816 23.47504 22168 ft 441 kts 139°
2026-05-04 11:53 39.92542 23.50201 22535 ft 443 kts 139°
2026-05-04 11:53 39.90256 23.52917 22893 ft 446 kts 139°
2026-05-04 11:53 39.87959 23.55647 23237 ft 448 kts 139°
2026-05-04 11:53 39.85652 23.58389 23585 ft 451 kts 139°
2026-05-04 11:55 39.69131 23.77949 25717 ft 469 kts 140°
2026-05-04 11:55 39.66711 23.80793 26012 ft 471 kts 140°
2026-05-04 11:56 39.64279 23.83650 26301 ft 473 kts 140°
2026-05-04 11:56 39.61836 23.86519 26574 ft 475 kts 140°
2026-05-04 11:56 39.59383 23.89403 26837 ft 477 kts 140°
2026-05-04 11:56 39.56921 23.92298 27099 ft 479 kts 140°
2026-05-04 11:57 39.54448 23.95200 27384 ft 480 kts 140°
2026-05-04 11:57 39.51965 23.98108 27646 ft 482 kts 140°
2026-05-04 11:57 39.49467 24.01024 27891 ft 485 kts 140°
2026-05-04 11:57 39.46957 24.03949 28132 ft 486 kts 140°
2026-05-04 11:58 39.44448 24.06875 28482 ft 485 kts 140°
2026-05-04 11:58 39.41944 24.09800 28825 ft 484 kts 140°
2026-05-04 11:58 39.39446 24.12716 29144 ft 484 kts 140°
2026-05-04 11:58 39.36948 24.15632 29450 ft 483 kts 140°
2026-05-04 11:59 39.34452 24.18536 29760 ft 483 kts 140°
2026-05-04 11:59 39.31955 24.21432 30063 ft 482 kts 140°
2026-05-04 11:59 39.29462 24.24321 30393 ft 481 kts 140°
2026-05-04 11:59 39.26977 24.27201 30700 ft 480 kts 140°
2026-05-04 12:00 39.24495 24.30073 30976 ft 480 kts 140°
2026-05-04 12:00 39.19565 24.35777 31068 ft 472 kts 140°
2026-05-04 12:01 39.14686 24.41408 31060 ft 470 kts 140°
2026-05-04 12:02 38.97645 24.60979 31053 ft 470 kts 140°
2026-05-04 12:03 38.92763 24.66561 31059 ft 470 kts 140°
2026-05-04 12:03 38.87882 24.72139 31071 ft 470 kts 140°
2026-05-04 12:04 38.83005 24.77711 31052 ft 470 kts 140°
2026-05-04 12:04 38.78114 24.83262 31051 ft 469 kts 140°
2026-05-04 12:05 38.73230 24.88814 31053 ft 470 kts 140°
2026-05-04 12:05 38.68341 24.94366 31042 ft 470 kts 141°
2026-05-04 12:06 38.63430 24.99926 31033 ft 473 kts 141°
2026-05-04 12:06 38.58490 25.05500 31037 ft 474 kts 141°
2026-05-04 12:07 38.53530 25.11075 31040 ft 475 kts 141°
2026-05-04 12:07 38.48563 25.16655 31044 ft 476 kts 141°
2026-05-04 12:08 38.43587 25.22240 31047 ft 476 kts 141°
2026-05-04 12:08 38.38609 25.27826 31050 ft 477 kts 141°
2026-05-04 12:09 38.33628 25.33399 31052 ft 477 kts 141°
2026-05-04 12:09 38.28643 25.38962 31065 ft 477 kts 141°
2026-05-04 12:10 38.23688 25.44483 31052 ft 477 kts 141°
2026-05-04 12:10 38.18699 25.50029 31053 ft 477 kts 141°
2026-05-04 12:11 38.13703 25.55567 31052 ft 476 kts 141°
2026-05-04 12:11 38.08710 25.61101 31050 ft 476 kts 141°
2026-05-04 12:12 38.03714 25.66627 31052 ft 476 kts 141°
2026-05-04 12:12 37.98714 25.72143 31052 ft 476 kts 142°
2026-05-04 12:14 37.78733 25.94107 31051 ft 476 kts 142°
2026-05-04 12:15 37.73689 25.99621 31051 ft 476 kts 142°
2026-05-04 12:15 37.68672 26.05084 31052 ft 476 kts 142°
2026-05-04 12:16 37.63695 26.10511 31051 ft 476 kts 142°
2026-05-04 12:16 37.58671 26.15975 31002 ft 478 kts 142°
2026-05-04 12:17 37.53622 26.21452 30964 ft 480 kts 142°
2026-05-04 12:17 37.48544 26.26944 30962 ft 482 kts 142°
2026-05-04 12:18 37.43450 26.32438 30965 ft 483 kts 142°
2026-05-04 12:18 37.38349 26.37948 30968 ft 484 kts 142°
2026-05-04 12:19 37.35794 26.40708 30548 ft 485 kts 142°
2026-05-04 12:19 37.33199 26.43503 29268 ft 498 kts 141°
2026-05-04 12:19 37.30586 26.46313 28860 ft 489 kts 141°
2026-05-04 12:19 37.28008 26.49084 28095 ft 488 kts 141°
2026-05-04 12:20 37.25433 26.51850 27408 ft 486 kts 141°
2026-05-04 12:20 37.22892 26.54576 27186 ft 473 kts 141°
2026-05-04 12:20 37.20405 26.57241 27062 ft 473 kts 141°
2026-05-04 12:20 37.17877 26.59946 26815 ft 482 kts 141°
2026-05-04 12:21 37.15317 26.62687 26565 ft 485 kts 141°
2026-05-04 12:21 37.12747 26.65435 26312 ft 486 kts 141°
2026-05-04 12:21 37.10175 26.68179 26072 ft 485 kts 141°
2026-05-04 12:21 37.07610 26.70910 25819 ft 483 kts 141°
2026-05-04 12:22 37.05058 26.73630 25568 ft 481 kts 141°
2026-05-04 12:22 37.02517 26.76339 25312 ft 479 kts 142°
2026-05-04 12:22 36.99980 26.79038 25068 ft 478 kts 142°
2026-05-04 12:22 36.97448 26.81727 24815 ft 476 kts 141°
2026-05-04 12:23 36.94931 26.84397 24556 ft 474 kts 141°
2026-05-04 12:23 36.92422 26.87058 24306 ft 472 kts 142°
2026-05-04 12:23 36.89919 26.89712 24061 ft 471 kts 142°
2026-05-04 12:23 36.87428 26.92354 23816 ft 468 kts 141°
2026-05-04 12:24 36.84954 26.94975 23562 ft 465 kts 141°
2026-05-04 12:24 36.83330 26.96696 23208 ft 461 kts 141°
2026-05-04 12:24 36.80888 26.99276 22541 ft 458 kts 141°
2026-05-04 12:24 36.78463 27.01831 21916 ft 455 kts 141°
2026-05-04 12:25 36.76060 27.04363 21311 ft 450 kts 141°
2026-05-04 12:25 36.73676 27.06874 20711 ft 446 kts 141°
2026-05-04 12:25 36.71315 27.09357 20114 ft 441 kts 141°
2026-05-04 12:25 36.69098 27.11971 19586 ft 437 kts 133°
2026-05-04 12:26 36.67287 27.14975 19044 ft 432 kts 122°
2026-05-04 12:26 36.65911 27.18273 18564 ft 427 kts 114°
2026-05-04 12:26 36.64735 27.21636 18066 ft 421 kts 114°
2026-05-04 12:26 36.63573 27.24953 17593 ft 415 kts 114°
2026-05-04 12:27 36.62426 27.28221 17126 ft 409 kts 114°
2026-05-04 12:27 36.61293 27.31442 16671 ft 403 kts 114°
2026-05-04 12:27 36.60176 27.34616 16218 ft 398 kts 114°
2026-05-04 12:27 36.59071 27.37754 15765 ft 393 kts 114°
2026-05-04 12:28 36.57978 27.40855 15317 ft 389 kts 114°
2026-05-04 12:28 36.56897 27.43923 14845 ft 385 kts 114°
2026-05-04 12:28 36.55824 27.46963 14372 ft 382 kts 114°
2026-05-04 12:28 36.54760 27.49979 13892 ft 379 kts 114°
2026-05-04 12:29 36.53716 27.52933 13407 ft 377 kts 114°
2026-05-04 12:29 36.52665 27.55904 12916 ft 374 kts 114°
2026-05-04 12:29 36.51621 27.58853 12395 ft 372 kts 114°
2026-05-04 12:29 36.50584 27.61789 11886 ft 370 kts 114°
2026-05-04 12:30 36.49550 27.64706 11356 ft 368 kts 114°
2026-05-04 12:30 36.48520 27.67595 10929 ft 363 kts 114°
2026-05-04 12:30 36.47514 27.70404 10804 ft 349 kts 114°
2026-05-04 12:30 36.46550 27.73107 10669 ft 336 kts 114°
2026-05-04 12:31 36.45609 27.75762 10148 ft 337 kts 112°
2026-05-04 12:31 36.45019 27.78497 10027 ft 323 kts 92°
2026-05-04 12:31 36.45059 27.81228 9898 ft 310 kts 86°
2026-05-04 12:31 36.45190 27.83853 9764 ft 300 kts 85°
2026-05-04 12:32 36.45326 27.86410 9495 ft 295 kts 85°
2026-05-04 12:32 36.45600 27.91450 8833 ft 290 kts 85°
2026-05-04 12:32 36.45736 27.93935 8493 ft 287 kts 85°
2026-05-04 12:33 36.45872 27.96406 8126 ft 286 kts 85°
2026-05-04 12:33 36.46006 27.98857 7753 ft 284 kts 85°
2026-05-04 12:33 36.46140 28.01296 7380 ft 282 kts 85°
2026-05-04 12:33 36.46409 28.03700 6997 ft 280 kts 77°
2026-05-04 12:34 36.46847 28.06049 6617 ft 278 kts 76°
2026-05-04 12:34 36.47306 28.08380 6245 ft 277 kts 76°
2026-05-04 12:34 36.47763 28.10697 5868 ft 275 kts 75°
2026-05-04 12:34 36.48217 28.12998 5499 ft 273 kts 75°
2026-05-04 12:35 36.48667 28.15285 5121 ft 272 kts 75°
2026-05-04 12:35 36.49115 28.17563 4736 ft 270 kts 76°
2026-05-04 12:35 36.49561 28.19826 4356 ft 269 kts 76°
2026-05-04 12:35 36.50003 28.22067 4115 ft 262 kts 75°
2026-05-04 12:36 36.50425 28.24224 3987 ft 252 kts 76°
2026-05-04 12:36 36.50819 28.26302 3832 ft 243 kts 80°
2026-05-04 12:36 36.50697 28.28356 3566 ft 240 kts 111°
2026-05-04 12:36 36.49740 28.30012 3252 ft 238 kts 145°
2026-05-04 12:37 36.48213 28.30549 3353 ft 232 kts 189°
2026-05-04 12:37 36.46646 28.29880 3245 ft 252 kts 218°
2026-05-04 12:37 36.45641 28.28186 2936 ft 244 kts 256°
2026-05-04 12:37 36.45521 28.26188 2649 ft 223 kts 270°
2026-05-04 12:38 36.45209 28.24419 2393 ft 199 kts 249°
2026-05-04 12:38 36.44727 28.22907 2140 ft 178 kts 250°
2026-05-04 12:38 36.44310 28.21526 1914 ft 162 kts 251°
2026-05-04 12:38 36.43935 28.20254 1696 ft 153 kts 251°
2026-05-04 12:39 36.43577 28.19032 1486 ft 149 kts 250°
2026-05-04 12:39 36.43226 28.17829 1301 ft 147 kts 250°
2026-05-04 12:39 36.42878 28.16635 1105 ft 147 kts 250°
2026-05-04 12:39 36.42532 28.15450 914 ft 146 kts 250°
2026-05-04 12:40 36.42187 28.14271 721 ft 145 kts 250°
2026-05-04 12:40 36.41843 28.13094 533 ft 145 kts 250°
2026-05-04 12:40 36.41500 28.11918 338 ft 145 kts 250°
2026-05-04 12:40 36.41154 28.10747 127 ft 145 kts 249°
2026-05-04 12:41 36.40815 28.09612 27 ft 130 kts 249°
2026-05-04 12:41 36.40590 28.08829 25 ft 54 kts 251°
2026-05-04 12:41 36.40508 28.08627 23 ft 13 kts 181°
2026-05-04 12:41 36.40455 28.08706 23 ft 9 kts 114°
2026-05-04 12:42 36.40447 28.08726 24 ft 7 kts 114°
2026-05-04 12:42 36.40447 28.08727 23 ft 0 kts 114°
2026-05-04 12:43 36.40444 28.08734 23 ft 4 kts 115°
2026-05-04 12:43 36.40414 28.08803 23 ft 11 kts 119°
2026-05-04 12:44 36.40397 28.08891 24 ft 10 kts 96°
2026-05-04 12:44 36.40395 28.08972 24 ft 9 kts 83°
2026-05-04 12:44 36.40409 28.09042 24 ft 8 kts 73°
2026-05-04 12:44 36.40417 28.09099 24 ft 6 kts 101°
2026-05-04 12:45 36.40394 28.09119 24 ft 4 kts 163°
2026-05-04 12:45 36.40371 28.09132 24 ft 4 kts 157°
2026-05-04 12:45 36.40361 28.09135 24 ft 0 kts 162°